�������l�o���
Date,Time,MP-1(��Sv/h),MP-2(��Sv/h),MP-3(��Sv/h),MP-4(��Sv/h),MP-5(��Sv/h),MP-6(��Sv/h),MP-7(��Sv/h),����,����(m/s),���J
2020/10/11,00:00,0.170,0.151,0.245,0.233,0.238,0.131,0.080,�k�k��,8.4,��
2020/10/11,00:10,0.168,0.153,0.245,0.232,0.239,0.130,0.080,�k��,7.9,��
2020/10/11,00:20,0.169,0.152,0.245,0.233,0.237,0.131,0.080,�k��,7.6,��
2020/10/11,00:30,0.169,0.152,0.245,0.232,0.238,0.131,0.081,�k��,7.1,��
2020/10/11,00:40,0.169,0.152,0.244,0.233,0.237,0.132,0.081,�k�k��,7.9,��
2020/10/11,00:50,0.169,0.153,0.245,0.232,0.239,0.132,0.082,�k��,8.1,��
2020/10/11,01:00,0.169,0.152,0.244,0.235,0.237,0.132,0.081,�k�k��,7.8,��
2020/10/11,01:10,0.169,0.153,0.246,0.234,0.239,0.132,0.081,�k��,7.9,��
2020/10/11,01:20,0.168,0.152,0.244,0.233,0.239,0.132,0.081,�k�k��,7.7,��
2020/10/11,01:30,0.169,0.153,0.245,0.233,0.238,0.132,0.081,�k��,8.2,��
2020/10/11,01:40,0.169,0.152,0.244,0.234,0.237,0.132,0.080,�k��,7.8,��
2020/10/11,01:50,0.168,0.151,0.245,0.232,0.238,0.132,0.081,�k�k��,7.9,��
2020/10/11,02:00,0.170,0.151,0.245,0.233,0.237,0.131,0.080,�k�k��,7.4,��
2020/10/11,02:10,0.168,0.152,0.246,0.233,0.237,0.132,0.081,�k�k��,7.7,��
2020/10/11,02:20,0.168,0.152,0.244,0.233,0.238,0.132,0.080,�k�k��,7.4,��
2020/10/11,02:30,0.169,0.151,0.246,0.233,0.238,0.132,0.080,�k�k��,7.1,��
2020/10/11,02:40,0.168,0.152,0.246,0.232,0.238,0.131,0.080,�k�k��,8.7,��
2020/10/11,02:50,0.169,0.151,0.245,0.234,0.238,0.132,0.080,�k�k��,8.4,��
2020/10/11,03:00,0.169,0.152,0.245,0.233,0.239,0.132,0.081,�k�k��,8.1,��
2020/10/11,03:10,0.170,0.152,0.245,0.233,0.237,0.132,0.080,�k�k��,8.1,��
2020/10/11,03:20,0.169,0.152,0.245,0.233,0.239,0.132,0.081,�k�k��,8.7,��
2020/10/11,03:30,0.170,0.151,0.246,0.232,0.238,0.131,0.080,�k�k��,9.6,��
2020/10/11,03:40,0.168,0.152,0.246,0.234,0.237,0.132,0.080,�k�k��,9.0,��
2020/10/11,03:50,0.169,0.152,0.246,0.233,0.238,0.131,0.080,�k�k��,8.4,��
2020/10/11,04:00,0.168,0.152,0.246,0.232,0.238,0.132,0.081,�k�k��,8.4,��
2020/10/11,04:10,0.170,0.153,0.244,0.233,0.237,0.132,0.079,�k�k��,8.4,��
2020/10/11,04:20,0.169,0.152,0.246,0.232,0.238,0.132,0.080,�k�k��,9.8,��
2020/10/11,04:30,0.170,0.152,0.244,0.234,0.237,0.132,0.081,�k�k��,9.5,��
2020/10/11,04:40,0.169,0.152,0.247,0.233,0.239,0.132,0.080,�k�k��,9.2,��
2020/10/11,04:50,0.169,0.152,0.245,0.233,0.236,0.131,0.079,�k�k��,10.1,��
2020/10/11,05:00,0.168,0.152,0.246,0.233,0.239,0.131,0.081,�k�k��,10.7,��
2020/10/11,05:10,0.171,0.152,0.246,0.233,0.237,0.131,0.081,�k�k��,9.2,��
2020/10/11,05:20,0.169,0.152,0.248,0.232,0.240,0.132,0.081,�k�k��,9.5,��
2020/10/11,05:30,0.170,0.153,0.246,0.234,0.237,0.131,0.081,�k�k��,9.0,��
2020/10/11,05:40,0.169,0.152,0.248,0.233,0.239,0.131,0.080,�k�k��,8.8,�L
2020/10/11,05:50,0.171,0.153,0.246,0.233,0.238,0.133,0.081,�k�k��,8.7,��
2020/10/11,06:00,0.169,0.152,0.247,0.234,0.241,0.132,0.080,�k�k��,8.6,��
2020/10/11,06:10,0.170,0.153,0.246,0.234,0.237,0.132,0.081,�k�k��,9.5,��
2020/10/11,06:20,0.168,0.152,0.246,0.233,0.239,0.132,0.080,�k�k��,8.4,��
2020/10/11,06:30,0.170,0.153,0.246,0.233,0.237,0.132,0.080,�k��,8.2,��
2020/10/11,06:40,0.169,0.151,0.246,0.232,0.239,0.131,0.081,�k�k��,9.0,��
2020/10/11,06:50,0.170,0.154,0.247,0.234,0.238,0.132,0.080,�k�k��,8.5,��
2020/10/11,07:00,0.169,0.152,0.246,0.232,0.238,0.131,0.081,�k�k��,9.0,��
2020/10/11,07:10,0.170,0.152,0.245,0.235,0.239,0.132,0.080,�k�k��,7.7,�L
2020/10/11,07:20,0.169,0.153,0.248,0.233,0.239,0.132,0.080,�k�k��,7.7,�L
2020/10/11,07:30,0.170,0.153,0.247,0.233,0.239,0.132,0.081,�k�k��,8.7,�L
2020/10/11,07:40,0.170,0.153,0.247,0.233,0.239,0.132,0.081,�k�k��,6.7,�L
2020/10/11,07:50,0.171,0.152,0.246,0.233,0.240,0.133,0.082,�k�k��,7.8,�L
2020/10/11,08:00,0.170,0.153,0.247,0.233,0.237,0.134,0.082,�k�k��,8.2,�L
2020/10/11,08:10,0.169,0.153,0.245,0.233,0.238,0.132,0.082,�k�k��,7.9,�L
2020/10/11,08:20,0.170,0.153,0.246,0.232,0.237,0.133,0.082,�k�k��,7.4,�L
2020/10/11,08:30,0.170,0.155,0.244,0.233,0.239,0.132,0.081,�k�k��,7.7,�L
2020/10/11,08:40,0.168,0.153,0.245,0.232,0.237,0.134,0.082,�k�k��,7.9,�L
2020/10/11,08:50,0.170,0.153,0.243,0.232,0.239,0.133,0.081,�k�k��,7.2,�L
2020/10/11,09:00,0.170,0.152,0.246,0.232,0.237,0.133,0.082,�k,6.7,�L
2020/10/11,09:10,0.169,0.153,0.244,0.232,0.241,0.133,0.083,�k�k��,7.2,�L
2020/10/11,09:20,0.168,0.153,0.246,0.233,0.237,0.133,0.084,�k�k��,6.9,�L
2020/10/11,09:30,0.170,0.155,0.245,0.232,0.240,0.134,0.084,�k�k��,6.2,�L
2020/10/11,09:40,0.170,0.154,0.246,0.233,0.240,0.136,0.085,�k�k��,6.4,�L
2020/10/11,09:50,0.171,0.155,0.246,0.234,0.241,0.137,0.086,�k�k��,6.8,�L
2020/10/11,10:00,0.171,0.155,0.247,0.235,0.241,0.136,0.086,�k�k��,6.7,�L
2020/10/11,10:10,0.170,0.156,0.246,0.233,0.240,0.136,0.087,�k�k��,7.1,�L
2020/10/11,10:20,0.170,0.155,0.248,0.236,0.242,0.135,0.085,�k,7.4,�L
2020/10/11,10:30,0.168,0.154,0.246,0.233,0.240,0.136,0.084,�k�k��,7.9,�L
2020/10/11,10:40,0.170,0.153,0.248,0.235,0.241,0.134,0.084,�k,7.0,�L
2020/10/11,10:50,0.168,0.154,0.245,0.233,0.239,0.134,0.084,�k,7.7,�L
2020/10/11,11:00,0.170,0.154,0.247,0.233,0.241,0.134,0.084,�k�k��,7.3,�L
2020/10/11,11:10,0.169,0.155,0.245,0.233,0.240,0.134,0.084,�k,7.4,�L
2020/10/11,11:20,0.169,0.153,0.247,0.233,0.240,0.134,0.084,�k,8.1,��
2020/10/11,11:30,0.169,0.154,0.245,0.233,0.240,0.134,0.083,�k,7.6,�L
2020/10/11,11:40,0.168,0.153,0.246,0.231,0.238,0.133,0.084,�k,7.3,�L
2020/10/11,11:50,0.169,0.153,0.245,0.235,0.240,0.134,0.083,�k,7.6,�L
2020/10/11,12:00,0.169,0.154,0.244,0.233,0.237,0.133,0.083,�k,7.4,�L
2020/10/11,12:10,0.169,0.154,0.246,0.233,0.240,0.134,0.084,�k,8.2,�L
2020/10/11,12:20,0.168,0.154,0.246,0.233,0.240,0.134,0.084,�k,8.7,�L
2020/10/11,12:30,0.170,0.154,0.247,0.232,0.239,0.134,0.084,�k,8.7,�L
2020/10/11,12:40,0.168,0.155,0.245,0.234,0.240,0.134,0.083,�k,8.2,�L
2020/10/11,12:50,0.171,0.153,0.246,0.232,0.238,0.133,0.084,�k,7.8,�L
2020/10/11,13:00,0.169,0.154,0.245,0.234,0.240,0.134,0.083,�k,7.4,�L
2020/10/11,13:10,0.169,0.153,0.246,0.231,0.237,0.133,0.083,�k,7.6,�L
2020/10/11,13:20,0.169,0.153,0.245,0.234,0.241,0.132,0.082,�k,7.2,�L
2020/10/11,13:30,0.168,0.153,0.246,0.233,0.238,0.133,0.082,�k,8.1,�L
2020/10/11,13:40,0.168,0.152,0.244,0.234,0.239,0.131,0.083,�k,6.8,�L
2020/10/11,13:50,0.168,0.153,0.244,0.233,0.239,0.133,0.083,�k,6.8,�L
2020/10/11,14:00,0.168,0.153,0.243,0.232,0.237,0.132,0.082,�k,8.8,�L
2020/10/11,14:10,0.167,0.153,0.244,0.230,0.238,0.132,0.083,�k,6.5,�L
2020/10/11,14:20,0.167,0.151,0.243,0.229,0.236,0.132,0.083,�k,6.8,�L
2020/10/11,14:30,0.166,0.152,0.243,0.231,0.239,0.131,0.082,�k,7.7,�L
2020/10/11,14:40,0.166,0.151,0.241,0.229,0.235,0.131,0.082,�k�k��,7.6,�L
2020/10/11,14:50,0.164,0.152,0.242,0.230,0.237,0.131,0.082,�k,6.8,�L
2020/10/11,15:00,0.165,0.152,0.243,0.229,0.236,0.132,0.082,�k,6.8,�L
2020/10/11,15:10,0.164,0.154,0.242,0.230,0.237,0.132,0.084,�k,7.8,�L
2020/10/11,15:20,0.167,0.153,0.244,0.230,0.239,0.132,0.084,�k,8.5,�L
2020/10/11,15:30,0.166,0.154,0.242,0.232,0.237,0.134,0.086,�k,8.3,�L
2020/10/11,15:40,0.166,0.153,0.246,0.231,0.240,0.133,0.085,�k,7.4,�L
2020/10/11,15:50,0.166,0.154,0.245,0.233,0.239,0.135,0.085,�k,7.4,�L
2020/10/11,16:00,0.166,0.153,0.246,0.233,0.241,0.133,0.085,�k,7.8,�L
2020/10/11,16:10,0.167,0.154,0.243,0.233,0.237,0.132,0.084,�k,8.2,�L
2020/10/11,16:20,0.166,0.153,0.246,0.232,0.240,0.132,0.083,�k,6.3,�L
2020/10/11,16:30,0.166,0.153,0.243,0.233,0.238,0.132,0.083,�k,6.8,�L
2020/10/11,16:40,0.166,0.152,0.246,0.233,0.239,0.132,0.083,�k,7.6,��
2020/10/11,16:50,0.166,0.152,0.242,0.232,0.238,0.131,0.082,�k�k��,8.1,�L
2020/10/11,17:00,0.166,0.149,0.244,0.232,0.236,0.131,0.081,�k,8.4,��
2020/10/11,17:10,0.167,0.151,0.241,0.230,0.239,0.130,0.082,�k,6.9,��
2020/10/11,17:20,0.166,0.150,0.243,0.231,0.235,0.130,0.080,�k,7.4,��
2020/10/11,17:30,0.167,0.150,0.243,0.230,0.238,0.129,0.081,�k,6.3,��
2020/10/11,17:40,0.167,0.150,0.243,0.231,0.235,0.129,0.080,�k,6.4,��
2020/10/11,17:50,0.166,0.150,0.241,0.230,0.238,0.130,0.080,�k,7.5,��
2020/10/11,18:00,0.167,0.150,0.243,0.231,0.237,0.129,0.080,�k,6.2,��
2020/10/11,18:10,0.166,0.150,0.242,0.230,0.235,0.129,0.079,�k,6.5,��
2020/10/11,18:20,0.168,0.149,0.243,0.232,0.238,0.129,0.079,�k,6.5,��
2020/10/11,18:30,0.165,0.148,0.243,0.230,0.236,0.129,0.079,�k,7.1,��
2020/10/11,18:40,0.166,0.150,0.244,0.231,0.238,0.130,0.080,�k,6.9,��
2020/10/11,18:50,0.166,0.149,0.242,0.231,0.235,0.129,0.079,�k,7.0,��
2020/10/11,19:00,0.168,0.151,0.242,0.230,0.237,0.129,0.080,�k,5.9,�L
2020/10/11,19:10,0.168,0.149,0.242,0.232,0.235,0.130,0.079,�k,7.3,�L
2020/10/11,19:20,0.166,0.150,0.242,0.230,0.237,0.128,0.080,�k,7.5,��
2020/10/11,19:30,0.167,0.150,0.244,0.232,0.236,0.130,0.080,�k,7.2,��
2020/10/11,19:40,0.166,0.150,0.242,0.230,0.236,0.129,0.080,�k,7.9,��
2020/10/11,19:50,0.167,0.149,0.244,0.230,0.237,0.130,0.079,�k,7.2,��
2020/10/11,20:00,0.166,0.150,0.241,0.229,0.234,0.129,0.080,�k�k��,6.4,�L
2020/10/11,20:10,0.168,0.150,0.244,0.232,0.238,0.130,0.079,�k,6.7,�L
2020/10/11,20:20,0.167,0.150,0.243,0.232,0.236,0.130,0.080,�k�k��,6.6,��
2020/10/11,20:30,0.167,0.150,0.245,0.233,0.238,0.129,0.080,�k�k��,7.1,�L
2020/10/11,20:40,0.168,0.150,0.243,0.231,0.237,0.132,0.080,�k,6.4,�L
2020/10/11,20:50,0.167,0.151,0.245,0.232,0.238,0.130,0.081,�k,5.8,�L
2020/10/11,21:00,0.169,0.150,0.242,0.231,0.237,0.130,0.080,�k,6.7,�L
2020/10/11,21:10,0.167,0.150,0.245,0.232,0.238,0.131,0.081,�k,6.0,�L
2020/10/11,21:20,0.168,0.151,0.243,0.232,0.238,0.131,0.081,�k,6.6,�L
2020/10/11,21:30,0.168,0.151,0.244,0.231,0.237,0.131,0.082,�k,7.9,�L
2020/10/11,21:40,0.168,0.152,0.244,0.233,0.238,0.132,0.081,�k,6.4,�L
2020/10/11,21:50,0.167,0.152,0.245,0.231,0.235,0.131,0.081,�k,7.8,�L
2020/10/11,22:00,0.168,0.152,0.243,0.233,0.238,0.131,0.080,�k,7.1,�L
2020/10/11,22:10,0.168,0.151,0.243,0.229,0.236,0.132,0.082,�k,6.0,�L
2020/10/11,22:20,0.168,0.150,0.242,0.231,0.238,0.130,0.081,�k,7.8,�L
2020/10/11,22:30,0.167,0.152,0.244,0.231,0.235,0.131,0.082,�k,6.7,�L
2020/10/11,22:40,0.167,0.150,0.243,0.231,0.239,0.131,0.081,�k,7.0,�L
2020/10/11,22:50,0.168,0.150,0.243,0.229,0.235,0.131,0.080,�k,7.3,�L
2020/10/11,23:00,0.167,0.150,0.243,0.231,0.237,0.131,0.081,�k�k��,8.2,�L
2020/10/11,23:10,0.167,0.150,0.244,0.228,0.236,0.130,0.082,�k,7.7,�L
2020/10/11,23:20,0.167,0.150,0.241,0.231,0.236,0.131,0.082,�k,7.3,�L
2020/10/11,23:30,0.167,0.151,0.243,0.229,0.237,0.131,0.082,�k,6.5,�L
2020/10/11,23:40,0.166,0.151,0.241,0.231,0.236,0.131,0.081,�k,6.0,�L
2020/10/11,23:50,0.167,0.151,0.242,0.229,0.238,0.131,0.082,�k,7.1,�L
